リニア-グラウアー彗星

467P/LINEAR-Grauer (2005)

English version
Home page
Updated on October 5, 2023

---------------------------------------------------------------------

・ プロフィール

・ 軌道要素

                    Epoch = 2004 Dec. 21.0 TT
     T = 2005 Jan.  9.40661 TT        Peri. = 353.26123
     e = 0.1020765                    Node  = 200.49282 2000.0
     q = 5.4069546 AU                 Incl. =   1.20286
       a =  6.0216207 AU   n = 0.06670125   P =  14.78 years

---------------------------------------------------------------------

軌道要素は、CBET 5283に掲載されたものです。

---------------------------------------------------------------------

Copyright(C) Seiichi Yoshida (comet@aerith.net). All rights reserved.